[[{"header":{"parameterUnit":"m.s-1","parameterCategory":2,"la1":30.2991,"la2":30.254,"lo1":-89.0895,"lo2":-89.0444,"dy":0.0017,"dx":0.0017,"nx":28,"ny":28,"refTime":"2023-07-26T03:00:00:Z","depth":"0","parameterNumber":2,"parameterNumberName":"U-component_of_CURRENTS"},"data":[0,0,0,0,0,0,0,0,0,0,0,0,0,0,0,0,0,0,0,0,0,0,0,0,0,0,0,0,0,0,0,0,0,0,0,0,0,0,0,0,0,0,0,0,0,0,0,0,0,0,0,0,0,0,0,0,0,0,-0.0321,-0.0322,0,-0.0473,-0.0475,-0.0477,-0.0529,-0.0528,-0.0527,-0.0527,-0.0617,-0.062,-0.0623,0,0,0,0,0,0,0,0,0,0,0,0,0,-0.0183,-0.0185,-0.0321,-0.0322,-0.0324,-0.0472,-0.0475,-0.0477,-0.0529,-0.0528,-0.0527,-0.0526,-0.0616,-0.062,-0.0624,0,0,0,0,0,0,0,0,0,0,0,0,0,-0.0281,-0.0186,-0.032,-0.0367,-0.0372,-0.0472,-0.0475,-0.0478,-0.0529,-0.0528,-0.0527,-0.0526,-0.0615,-0.0619,-0.0624,-0.0676,0,0,-0.0638,-0.064,0,0,0,0,0,0,0,0,-0.0276,-0.0287,-0.0358,-0.0364,-0.037,-0.0479,-0.046,-0.054,-0.053,-0.0472,-0.0527,-0.0525,-0.0565,-0.0574,-0.0608,-0.0681,-0.0684,-0.0639,-0.0642,-0.0644,-0.0645,0,0,0,0,0,0,0,-0.0269,-0.0281,-0.0383,-0.036,-0.0367,-0.0416,-0.0428,-0.0476,-0.0523,-0.0477,-0.048,-0.0495,-0.0568,-0.0604,-0.0611,-0.0686,-0.0639,-0.0643,-0.0646,-0.0648,-0.0805,-0.0807,0,0,0,0,0,0,-0.0242,-0.0274,-0.0378,-0.0387,-0.0317,-0.0419,-0.0433,-0.0447,-0.0524,-0.0535,-0.0495,-0.0496,-0.0596,-0.0605,-0.0614,-0.0681,-0.0644,-0.0648,-0.0651,-0.0804,-0.0806,-0.0807,0,0,0,0,0,0,-0.0238,-0.025,-0.0372,-0.0333,-0.0351,-0.0422,-0.0438,-0.045,-0.0487,-0.0539,-0.0548,-0.0518,-0.0596,-0.0607,-0.067,-0.0684,-0.065,-0.0654,-0.0802,-0.0804,-0.0806,-0.0813,0,0,0,0,0,0,-0.0234,-0.0248,-0.0252,-0.0331,-0.0352,-0.0441,-0.0439,-0.0454,-0.0496,-0.0499,-0.0562,-0.0569,-0.0596,-0.0663,-0.0675,-0.069,-0.0658,-0.0801,-0.0803,-0.0806,-0.0811,-0.0815,-0.0819,0,0,0,0,0,-0.0229,-0.0242,-0.0251,-0.0264,-0.0354,-0.0443,-0.046,-0.0507,-0.0498,-0.0532,-0.057,-0.0567,-0.0687,-0.0669,-0.0682,-0.0698,-0.0799,-0.0803,-0.0806,-0.081,-0.0814,-0.0819,0,0,0,0,0,0,-0.0194,-0.0251,-0.0262,-0.0294,-0.0364,-0.0451,-0.0477,-0.0509,-0.0568,-0.0559,-0.0598,-0.0611,-0.0669,-0.0688,-0.0667,-0.0752,-0.0738,-0.0744,-0.0736,-0.0741,-0.0745,-0.0735,-0.0662,0,0,0,0,0,-0.0184,-0.0201,-0.0278,-0.0304,-0.0332,-0.0402,-0.0441,-0.0478,-0.0538,-0.0563,-0.061,-0.065,-0.0696,-0.072,-0.0768,-0.0821,-0.0823,-0.0836,-0.084,-0.0843,-0.0845,-0.0851,-0.0854,-0.0817,-0.0817,-0.0817,0,0,-0.0176,-0.0209,-0.0219,-0.0296,-0.0344,-0.0408,-0.0423,-0.0484,-0.0538,-0.0562,-0.064,-0.0672,-0.0715,-0.0776,-0.0802,-0.0791,-0.086,-0.0847,-0.0849,-0.0849,-0.0854,-0.0857,-0.086,-0.0819,-0.0819,-0.0819,0,0,-0.0181,-0.0199,-0.0221,-0.0279,-0.0352,-0.0406,-0.0422,-0.0515,-0.0552,-0.0635,-0.0656,-0.07,-0.0781,-0.0815,-0.0838,-0.0893,-0.0882,-0.0899,-0.0908,-0.0914,-0.0916,-0.0918,-0.094,-0.0944,-0.0896,-0.0896,-0.0896,0,-0.0172,-0.0211,-0.0248,-0.0296,-0.034,-0.0402,-0.0456,-0.0518,-0.0623,-0.0652,-0.0656,-0.0765,-0.08,-0.086,-0.0879,-0.09,-0.0901,-0.0884,-0.0916,-0.0918,-0.092,-0.0942,-0.0946,-0.0897,-0.0897,-0.0897,-0.0897,0,-0.0209,-0.0241,-0.0262,-0.0335,-0.0391,-0.0449,-0.053,-0.0591,-0.0631,-0.0685,-0.0756,-0.081,-0.0864,-0.0883,-0.0901,-0.0936,-0.0933,-0.092,-0.0897,-0.0924,-0.0946,-0.095,-0.0898,-0.0898,-0.0898,-0.0897,0,0,-0.0195,-0.0271,-0.028,-0.0311,-0.0413,-0.0466,-0.0546,-0.0639,-0.0678,-0.076,-0.0808,-0.0886,-0.0892,-0.0919,-0.094,-0.0951,-0.0975,-0.0938,-0.0938,-0.0947,-0.0994,-0.0935,-0.0934,-0.0954,-0.0955,-0.0955,-0.1008,0,-0.0219,-0.029,-0.0331,-0.0409,-0.0455,-0.0525,-0.0596,-0.0677,-0.0738,-0.0804,-0.0845,-0.0896,-0.0911,-0.0922,-0.0941,-0.0969,-0.0983,-0.0962,-0.0978,-0.0979,-0.0912,-0.0936,-0.0847,-0.088,-0.1012,-0.1012,-0.1013,0,-0.0251,-0.0292,-0.0359,-0.0435,-0.0461,-0.0515,-0.0612,-0.0685,-0.0778,-0.0817,-0.0864,-0.0894,-0.0945,-0.0934,-0.0991,-0.0972,-0.0984,-0.0999,-0.1001,-0.0944,-0.0927,-0.0874,-0.0882,-0.0737,-0.1019,-0.1018,-0.1018,0,-0.0226,-0.0313,-0.0356,-0.039,-0.0492,-0.0524,-0.0581,-0.0678,-0.0726,-0.0808,-0.0831,-0.09,-0.0923,-0.0952,-0.0985,-0.0985,-0.1028,-0.1032,-0.0998,-0.0996,-0.0922,-0.0911,-0.0778,-0.1058,-0.1058,-0.1057,-0.1057,0,-0.0244,-0.0279,-0.034,-0.0368,-0.0416,-0.0493,-0.0548,-0.0619,-0.0696,-0.0739,-0.0815,-0.085,-0.092,-0.0954,-0.0985,-0.1,-0.1027,-0.1006,-0.1,-0.0925,-0.0913,-0.0786,-0.0822,-0.1059,-0.1059,-0.1059,-0.1058,0,-0.022,-0.0264,-0.0309,-0.0385,-0.0403,-0.0434,-0.0508,-0.0548,-0.0629,-0.0682,-0.0698,-0.0808,-0.0855,-0.0912,-0.0969,-0.0988,-0.098,-0.1005,-0.0918,-0.0901,-0.0735,-0.0779,-0.084,-0.0824,-0.0996,-0.0995,-0.0994,0,-0.0224,-0.024,-0.0292,-0.0303,-0.0331,-0.0378,-0.0409,-0.05,-0.0536,-0.0653,-0.0668,-0.0738,-0.0778,-0.0851,-0.089,-0.0929,-0.0922,-0.087,-0.0854,-0.0706,-0.0753,-0.0841,-0.083,-0.0779,-0.0776,-0.0774,-0.0772,0,-0.0219,-0.0222,-0.0248,-0.0256,-0.0274,-0.0308,-0.0353,-0.0371,-0.0478,-0.0519,-0.0588,-0.0626,-0.0708,-0.0717,-0.0762,-0.0785,-0.0813,-0.0825,-0.0688,-0.0588,-0.0664,-0.0649,-0.0778,-0.0752,-0.0754,-0.0756,-0.0757,-0.0758,-0.02,-0.0199,-0.0207,-0.021,-0.0231,-0.0243,-0.0252,-0.0292,-0.0331,-0.0381,-0.0465,-0.0474,-0.0514,-0.0574,-0.0569,-0.0484,-0.0687,-0.0456,-0.0534,-0.0641,-0.0585,-0.0673,-0.0621,-0.0622,-0.0623,-0.0624,-0.0624,0,-0.0189,-0.0173,-0.0166,-0.017,-0.0175,-0.0198,-0.0224,-0.0221,-0.0236,-0.0241,-0.0275,-0.0238,-0.0209,-0.0213,-0.0177,-0.0148,-0.0226,-0.0158,-0.0218,-0.023,-0.0274,-0.0207,-0.004,-0.004,-0.004,-0.0041,-0.0041,-0.0041,-0.018,-0.0159,-0.014,-0.0117,-0.0124,-0.0123,-0.013,-0.0114,-0.0102,-0.0042,0.0009,0.002,0.009,0.0128,0.0227,0.0182,0.0135,0.0017,-0.0025,0.0045,0.0014,-0.0015,0.0053,0.0271,0.0271,0.0095,0.0094,0.0093]},{"header":{"parameterUnit":"m.s-1","parameterCategory":2,"la1":30.2991,"la2":30.254,"lo1":-89.0895,"lo2":-89.0444,"dy":0.0017,"dx":0.0017,"nx":28,"ny":28,"refTime":"2023-07-26T03:00:00:Z","depth":"0","parameterNumber":3,"parameterNumberName":"V-component_of_CURRENTS"},"data":[0,0,0,0,0,0,0,0,0,0,0,0,0,0,0,0,0,0,0,0,0,0,0,0,0,0,0,0,0,0,0,0,0,0,0,0,0,0,0,0,0,0,0,0,0,0,0,0,0,0,0,0,0,0,0,0,0,0,-0.1198,-0.1197,0,-0.1087,-0.1084,-0.1082,-0.0985,-0.0985,-0.0985,-0.0985,-0.0835,-0.0831,-0.0827,0,0,0,0,0,0,0,0,0,0,0,0,0,-0.1182,-0.1183,-0.1198,-0.1197,-0.1197,-0.1087,-0.1084,-0.1082,-0.0985,-0.0985,-0.0985,-0.0985,-0.0836,-0.0832,-0.0827,0,0,0,0,0,0,0,0,0,0,0,0,0,-0.1131,-0.1183,-0.1198,-0.1144,-0.1139,-0.1088,-0.1084,-0.1081,-0.0985,-0.0985,-0.0985,-0.0985,-0.0838,-0.0832,-0.0826,-0.079,0,0,-0.0808,-0.0806,0,0,0,0,0,0,0,0,-0.1134,-0.113,-0.1153,-0.1148,-0.1143,-0.106,-0.1025,-0.0986,-0.0985,-0.1031,-0.0985,-0.0985,-0.0915,-0.0902,-0.0865,-0.0783,-0.0777,-0.0808,-0.0804,-0.0802,-0.08,0,0,0,0,0,0,0,-0.1138,-0.1134,-0.1141,-0.1153,-0.1147,-0.1078,-0.107,-0.1015,-0.0964,-0.1027,-0.1022,-0.1029,-0.091,-0.0871,-0.0861,-0.0775,-0.0808,-0.0803,-0.0799,-0.0797,-0.0635,-0.0634,0,0,0,0,0,0,-0.1184,-0.1138,-0.1145,-0.1139,-0.1152,-0.108,-0.1071,-0.1077,-0.0965,-0.0952,-0.1029,-0.1025,-0.0881,-0.0868,-0.0855,-0.0793,-0.0802,-0.0796,-0.0793,-0.0636,-0.0635,-0.0634,0,0,0,0,0,0,-0.1184,-0.1185,-0.115,-0.1145,-0.1138,-0.1082,-0.1088,-0.1075,-0.1034,-0.097,-0.0954,-0.1004,-0.0881,-0.0864,-0.0799,-0.0787,-0.0793,-0.0788,-0.0637,-0.0636,-0.0635,-0.0677,0,0,0,0,0,0,-0.1184,-0.1186,-0.1192,-0.1149,-0.114,-0.1117,-0.1089,-0.1073,-0.1044,-0.1037,-0.0943,-0.0929,-0.0879,-0.0809,-0.0794,-0.0779,-0.0783,-0.0638,-0.0636,-0.0635,-0.0676,-0.0677,-0.0678,0,0,0,0,0,-0.1183,-0.1194,-0.1192,-0.1193,-0.1155,-0.1118,-0.1104,-0.1056,-0.1044,-0.1018,-0.0959,-0.0932,-0.079,-0.0803,-0.0786,-0.0769,-0.0638,-0.0637,-0.0635,-0.0676,-0.0677,-0.0678,0,0,0,0,0,0,-0.1175,-0.1186,-0.1182,-0.1192,-0.1161,-0.1106,-0.1087,-0.106,-0.099,-0.0987,-0.0918,-0.0898,-0.0837,-0.0798,-0.0815,-0.0719,-0.0711,-0.0706,-0.0748,-0.0749,-0.075,-0.0779,-0.0778,0,0,0,0,0,-0.1187,-0.1205,-0.1187,-0.1192,-0.1185,-0.1137,-0.1115,-0.1087,-0.1034,-0.1003,-0.0939,-0.0876,-0.0815,-0.0781,-0.072,-0.0667,-0.0656,-0.0647,-0.0648,-0.0649,-0.0661,-0.0639,-0.064,-0.0629,-0.0629,-0.0629,0,0,-0.1183,-0.1196,-0.1201,-0.1193,-0.1166,-0.1141,-0.1118,-0.1094,-0.106,-0.1,-0.0925,-0.0875,-0.0802,-0.0738,-0.0708,-0.0705,-0.0644,-0.0647,-0.0648,-0.066,-0.0638,-0.0639,-0.064,-0.0628,-0.0628,-0.0628,0,0,-0.1185,-0.1199,-0.1208,-0.1192,-0.1179,-0.1148,-0.1147,-0.1094,-0.1055,-0.0992,-0.0942,-0.0894,-0.0788,-0.0741,-0.0703,-0.0676,-0.065,-0.065,-0.0676,-0.0655,-0.0656,-0.0657,-0.0644,-0.0644,-0.0651,-0.0651,-0.0651,0,-0.1175,-0.1192,-0.1197,-0.1196,-0.1181,-0.1156,-0.1135,-0.1093,-0.102,-0.099,-0.0975,-0.0845,-0.0791,-0.0725,-0.0715,-0.068,-0.0666,-0.0679,-0.0659,-0.066,-0.066,-0.0646,-0.0645,-0.0652,-0.0652,-0.0652,-0.0652,0,-0.118,-0.1186,-0.1188,-0.1184,-0.1161,-0.1145,-0.1108,-0.1072,-0.1034,-0.0991,-0.0923,-0.0858,-0.0787,-0.0761,-0.0725,-0.0695,-0.0684,-0.0665,-0.0664,-0.0664,-0.0649,-0.0647,-0.0655,-0.0654,-0.0654,-0.0653,0,0,-0.1164,-0.1187,-0.1186,-0.1177,-0.1156,-0.1132,-0.1095,-0.1042,-0.1014,-0.0957,-0.0918,-0.0832,-0.0819,-0.0778,-0.0738,-0.0723,-0.0715,-0.0701,-0.0699,-0.0704,-0.0675,-0.0741,-0.0746,-0.0693,-0.0693,-0.0693,-0.0663,0,-0.1153,-0.1165,-0.117,-0.114,-0.1128,-0.1103,-0.1065,-0.1021,-0.0977,-0.0934,-0.0896,-0.0839,-0.0818,-0.0792,-0.0778,-0.0724,-0.0713,-0.0726,-0.0661,-0.0659,-0.0731,-0.0747,-0.0687,-0.0662,-0.0662,-0.0661,-0.0661,0,-0.1141,-0.1153,-0.1143,-0.1121,-0.1112,-0.1087,-0.1032,-0.0998,-0.095,-0.0919,-0.0888,-0.0857,-0.0826,-0.0816,-0.0757,-0.0765,-0.073,-0.07,-0.0697,-0.0749,-0.0724,-0.0659,-0.0659,-0.0439,-0.0658,-0.0659,-0.0659,0,-0.1118,-0.1119,-0.1114,-0.1108,-0.1085,-0.1063,-0.1039,-0.0989,-0.096,-0.092,-0.0905,-0.0864,-0.0844,-0.0806,-0.0759,-0.075,-0.0708,-0.0681,-0.0709,-0.0713,-0.0646,-0.0645,-0.0441,-0.0651,-0.0651,-0.0651,-0.0651,0,-0.1096,-0.1081,-0.1107,-0.1098,-0.1071,-0.1057,-0.1018,-0.0986,-0.0959,-0.0934,-0.0907,-0.0892,-0.0843,-0.0815,-0.0771,-0.0753,-0.0715,-0.073,-0.0717,-0.0659,-0.066,-0.0455,-0.0358,-0.065,-0.065,-0.065,-0.065,0,-0.105,-0.1078,-0.1062,-0.1061,-0.106,-0.1034,-0.1013,-0.0988,-0.0966,-0.0944,-0.0937,-0.0907,-0.0889,-0.085,-0.0787,-0.0772,-0.065,-0.0734,-0.0686,-0.0671,-0.053,-0.0441,-0.038,-0.0299,-0.077,-0.0771,-0.0773,0,-0.1024,-0.1023,-0.1037,-0.1032,-0.1027,-0.1009,-0.0997,-0.0984,-0.0973,-0.0951,-0.0949,-0.0936,-0.0933,-0.0895,-0.0866,-0.083,-0.0675,-0.0745,-0.0734,-0.053,-0.0417,-0.0421,-0.0355,-0.0641,-0.0641,-0.0641,-0.0641,0,-0.0961,-0.0978,-0.0975,-0.0984,-0.0979,-0.0975,-0.097,-0.0972,-0.0967,-0.0963,-0.0961,-0.0963,-0.0964,-0.0947,-0.0931,-0.086,-0.0609,-0.0754,-0.052,-0.0303,-0.031,-0.0222,-0.0652,-0.0642,-0.0642,-0.0642,-0.0642,-0.0642,-0.0908,-0.0901,-0.0922,-0.0919,-0.0921,-0.0932,-0.0926,-0.0949,-0.0953,-0.0957,-0.0979,-0.0992,-0.0963,-0.0961,-0.0857,-0.0584,-0.0654,-0.0467,-0.0375,-0.04,-0.0323,-0.0797,-0.0798,-0.0799,-0.0799,-0.08,-0.08,0,-0.0849,-0.0858,-0.0854,-0.0862,-0.0857,-0.0877,-0.0898,-0.0904,-0.0923,-0.0963,-0.0982,-0.0986,-0.0858,-0.0713,-0.0432,-0.0204,-0.0137,-0.0041,0.0074,0.0123,-0.0241,-0.023,-0.0134,-0.0134,-0.0134,-0.0134,-0.0135,-0.0135,-0.0818,-0.0809,-0.0822,-0.0804,-0.0807,-0.0804,-0.0815,-0.0841,-0.0878,-0.0914,-0.0951,-0.0993,-0.0722,-0.02,0.029,0.0365,0.0581,0.0499,0.0591,0.0493,0.0464,0.0437,0.0475,0.0717,0.0718,0.095,0.0954,0.0956]}],[{"header":{"parameterUnit":"m.s-1","parameterCategory":2,"la1":30.2991,"la2":30.254,"lo1":-89.0895,"lo2":-89.0444,"dy":0.0017,"dx":0.0017,"nx":28,"ny":28,"refTime":"2023-07-26T03:00:00:Z","depth":"2","parameterNumber":2,"parameterNumberName":"U-component_of_CURRENTS"},"data":[0,0,0,0,0,0,0,0,0,0,0,0,0,0,0,0,0,0,0,0,0,0,0,0,0,0,0,0,0,0,0,0,0,0,0,0,0,0,0,0,0,0,0,0,0,0,0,0,0,0,0,0,0,0,0,0,0,0,-0.2638,-0.2638,0,-0.2615,-0.2615,-0.2614,-0.2555,-0.2554,-0.2553,-0.2552,-0.2455,-0.2453,-0.2452,0,0,0,0,0,0,0,0,0,0,0,0,0,-0.2583,-0.2584,-0.2638,-0.2638,-0.2638,-0.2615,-0.2615,-0.2614,-0.2555,-0.2554,-0.2553,-0.2551,-0.2455,-0.2454,-0.2452,0,0,0,0,0,0,0,0,0,0,0,0,0,-0.2586,-0.2585,-0.2638,-0.2608,-0.2605,-0.2616,-0.2615,-0.2614,-0.2555,-0.2554,-0.2552,-0.2551,-0.2456,-0.2454,-0.2451,-0.2466,0,0,-0.2444,-0.2443,0,0,0,0,0,0,0,0,-0.2586,-0.2587,-0.2613,-0.261,-0.2607,-0.2589,-0.256,-0.2562,-0.2556,-0.2571,-0.2552,-0.255,-0.2496,-0.249,-0.2486,-0.2462,-0.2457,-0.2443,-0.2442,-0.2441,-0.244,0,0,0,0,0,0,0,-0.2586,-0.2588,-0.2626,-0.2613,-0.261,-0.258,-0.2578,-0.256,-0.2539,-0.257,-0.2566,-0.2569,-0.2493,-0.2489,-0.2483,-0.2456,-0.2444,-0.2441,-0.244,-0.2439,-0.2379,-0.2379,0,0,0,0,0,0,-0.2599,-0.2588,-0.2627,-0.2626,-0.2596,-0.2582,-0.2581,-0.2594,-0.254,-0.2532,-0.257,-0.2566,-0.2494,-0.2486,-0.2479,-0.2426,-0.2441,-0.2439,-0.2437,-0.2379,-0.2379,-0.2379,0,0,0,0,0,0,-0.2598,-0.2603,-0.2628,-0.2608,-0.2609,-0.2585,-0.26,-0.2594,-0.2568,-0.2542,-0.2531,-0.2548,-0.2492,-0.2483,-0.2449,-0.2424,-0.2438,-0.2435,-0.2379,-0.2379,-0.2379,-0.2363,0,0,0,0,0,0,-0.2597,-0.2603,-0.2601,-0.2609,-0.2611,-0.2625,-0.2602,-0.2595,-0.2575,-0.2569,-0.252,-0.251,-0.249,-0.2453,-0.2447,-0.2421,-0.2433,-0.2379,-0.2379,-0.2379,-0.2364,-0.2362,-0.2361,0,0,0,0,0,-0.2595,-0.2603,-0.2602,-0.2606,-0.2615,-0.2625,-0.2623,-0.2598,-0.2575,-0.2567,-0.2533,-0.2511,-0.2447,-0.2451,-0.2444,-0.2417,-0.238,-0.2379,-0.2379,-0.2364,-0.2363,-0.2361,0,0,0,0,0,0,-0.2569,-0.2599,-0.2597,-0.2611,-0.2614,-0.2616,-0.2601,-0.2592,-0.256,-0.254,-0.2512,-0.2501,-0.2458,-0.245,-0.2455,-0.2402,-0.2409,-0.2407,-0.24,-0.2398,-0.2397,-0.2372,-0.2431,0,0,0,0,0,-0.2569,-0.2581,-0.2603,-0.2607,-0.2611,-0.2603,-0.2597,-0.2586,-0.2569,-0.2552,-0.2521,-0.2487,-0.2458,-0.2437,-0.2412,-0.2388,-0.2351,-0.2367,-0.2366,-0.2365,-0.2341,-0.2285,-0.2275,-0.2378,-0.2378,-0.2378,0,0,-0.2554,-0.2575,-0.2576,-0.2602,-0.2596,-0.2593,-0.2594,-0.2584,-0.2563,-0.2548,-0.2495,-0.2478,-0.2451,-0.2417,-0.2398,-0.2402,-0.2316,-0.2365,-0.2364,-0.234,-0.2283,-0.2273,-0.2264,-0.2378,-0.2378,-0.2378,0,0,-0.2534,-0.2555,-0.2554,-0.2563,-0.2568,-0.2571,-0.2567,-0.2563,-0.2541,-0.2516,-0.2488,-0.2451,-0.2423,-0.2386,-0.2368,-0.2347,-0.2311,-0.235,-0.2319,-0.2266,-0.2256,-0.2247,-0.2181,-0.2167,-0.2351,-0.2351,-0.2351,0,-0.2508,-0.2521,-0.2551,-0.2553,-0.2546,-0.2559,-0.2542,-0.2535,-0.2514,-0.2487,-0.2494,-0.2417,-0.2399,-0.2334,-0.2333,-0.2337,-0.2305,-0.2326,-0.2261,-0.2252,-0.2243,-0.2178,-0.2161,-0.235,-0.235,-0.235,-0.235,0,-0.249,-0.2493,-0.2492,-0.25,-0.2499,-0.249,-0.2495,-0.2477,-0.246,-0.2446,-0.2384,-0.2364,-0.2315,-0.2312,-0.2318,-0.2246,-0.2243,-0.2264,-0.226,-0.2231,-0.2165,-0.2148,-0.2349,-0.2349,-0.2349,-0.235,0,0,-0.2425,-0.2471,-0.2461,-0.245,-0.2467,-0.2457,-0.2436,-0.2411,-0.237,-0.2356,-0.2293,-0.2259,-0.2249,-0.2228,-0.2223,-0.2182,-0.2101,-0.2203,-0.22,-0.2127,-0.1971,-0.1909,-0.1885,-0.2119,-0.2117,-0.2114,-0.1949,0,-0.2383,-0.2379,-0.2413,-0.2375,-0.2363,-0.238,-0.2355,-0.2333,-0.2318,-0.2269,-0.2239,-0.2189,-0.2219,-0.2195,-0.2157,-0.2118,-0.2058,-0.2143,-0.2019,-0.2014,-0.1954,-0.1864,-0.1731,-0.1567,-0.1932,-0.1929,-0.1927,0,-0.2326,-0.2336,-0.2304,-0.2303,-0.2296,-0.2269,-0.2218,-0.2205,-0.2167,-0.216,-0.2119,-0.2114,-0.2048,-0.2087,-0.1974,-0.2033,-0.1991,-0.1961,-0.1955,-0.1884,-0.192,-0.1657,-0.1523,-0.1899,-0.1902,-0.1904,-0.1906,0,-0.223,-0.2241,-0.2209,-0.2209,-0.2218,-0.218,-0.2169,-0.2141,-0.2119,-0.2079,-0.206,-0.2002,-0.1959,-0.1908,-0.1875,-0.192,-0.1747,-0.18,-0.1688,-0.1683,-0.1534,-0.1521,-0.1689,-0.1689,-0.169,-0.169,-0.1691,0,-0.2158,-0.2119,-0.2152,-0.2127,-0.2067,-0.2092,-0.2017,-0.2019,-0.1994,-0.1946,-0.1984,-0.192,-0.1917,-0.1845,-0.1819,-0.1686,-0.1695,-0.1635,-0.162,-0.1527,-0.1515,-0.1788,-0.1802,-0.1684,-0.1685,-0.1686,-0.1687,0,-0.2032,-0.2067,-0.2029,-0.203,-0.2018,-0.1962,-0.1941,-0.1897,-0.1903,-0.1842,-0.1833,-0.1827,-0.1733,-0.1715,-0.1612,-0.1589,-0.149,-0.1443,-0.133,-0.1304,-0.1475,-0.149,-0.1277,-0.1273,-0.127,-0.1267,-0.1265,0,-0.1965,-0.1933,-0.1938,-0.1909,-0.1894,-0.1837,-0.1801,-0.1828,-0.1799,-0.1763,-0.172,-0.1647,-0.1558,-0.1396,-0.1338,-0.1234,-0.1342,-0.1072,-0.1127,-0.1417,-0.1424,-0.1445,-0.1464,-0.092,-0.0915,-0.0911,-0.0907,0,-0.1821,-0.1825,-0.1802,-0.1768,-0.1724,-0.1701,-0.1656,-0.1633,-0.1652,-0.1611,-0.1513,-0.1435,-0.129,-0.1128,-0.104,-0.0966,-0.1088,-0.0986,-0.1266,-0.1067,-0.1072,-0.1084,-0.1115,-0.0871,-0.0875,-0.0877,-0.0879,-0.0881,-0.1692,-0.1655,-0.1642,-0.1592,-0.1573,-0.1546,-0.149,-0.1465,-0.1412,-0.1333,-0.1318,-0.1182,-0.1099,-0.09,-0.0788,-0.0716,-0.0809,-0.0779,-0.0794,-0.0812,-0.0823,-0.0824,-0.0577,-0.0578,-0.058,-0.0582,-0.0583,0,-0.1529,-0.1505,-0.1463,-0.1426,-0.1385,-0.1415,-0.1378,-0.1318,-0.1218,-0.1167,-0.1065,-0.0892,-0.0743,-0.0685,-0.0516,-0.0453,-0.0465,-0.0418,-0.046,-0.0493,-0.0523,-0.0525,-0.0196,-0.0195,-0.0195,-0.0195,0,0,-0.1432,-0.1356,-0.1352,-0.1247,-0.1221,-0.1143,-0.1112,-0.1047,-0.1005,-0.0861,-0.0789,-0.0792,-0.0725,-0.0549,-0.0421,-0.0306,-0.0414,-0.0256,-0.0557,-0.0644,-0.0676,-0.07,-0.0734,0,0,0,0,0]},{"header":{"parameterUnit":"m.s-1","parameterCategory":2,"la1":30.2991,"la2":30.254,"lo1":-89.0895,"lo2":-89.0444,"dy":0.0017,"dx":0.0017,"nx":28,"ny":28,"refTime":"2023-07-26T03:00:00:Z","depth":"2","parameterNumber":3,"parameterNumberName":"V-component_of_CURRENTS"},"data":[0,0,0,0,0,0,0,0,0,0,0,0,0,0,0,0,0,0,0,0,0,0,0,0,0,0,0,0,0,0,0,0,0,0,0,0,0,0,0,0,0,0,0,0,0,0,0,0,0,0,0,0,0,0,0,0,0,0,0.0836,0.0836,0,0.0877,0.0878,0.0879,0.0892,0.0891,0.0891,0.089,0.095,0.0952,0.0954,0,0,0,0,0,0,0,0,0,0,0,0,0,0.0846,0.0846,0.0836,0.0836,0.0836,0.0877,0.0878,0.0879,0.0892,0.0891,0.089,0.089,0.0949,0.0952,0.0954,0,0,0,0,0,0,0,0,0,0,0,0,0,0.0864,0.0846,0.0836,0.0845,0.0846,0.0877,0.0878,0.0879,0.0892,0.0891,0.089,0.0889,0.0949,0.0952,0.0955,0.0992,0,0,0.0965,0.0966,0,0,0,0,0,0,0,0,0.0863,0.0864,0.0843,0.0844,0.0845,0.0875,0.0904,0.0917,0.0892,0.0879,0.089,0.0889,0.0925,0.093,0.0945,0.0995,0.0997,0.0965,0.0967,0.0968,0.0969,0,0,0,0,0,0,0,0.0861,0.0863,0.0857,0.0843,0.0845,0.0873,0.0874,0.0907,0.091,0.088,0.088,0.0878,0.0926,0.0942,0.0946,0.0998,0.0965,0.0968,0.097,0.0971,0.1008,0.1007,0,0,0,0,0,0,0.0845,0.0861,0.0855,0.0857,0.0847,0.0873,0.0874,0.087,0.0909,0.0913,0.0879,0.0879,0.0937,0.0943,0.0949,0.0899,0.0968,0.0971,0.0973,0.1009,0.1008,0.1007,0,0,0,0,0,0,0.0845,0.0844,0.0853,0.0857,0.086,0.0872,0.0868,0.0871,0.0843,0.0907,0.0912,0.0843,0.0936,0.0944,0.0948,0.0905,0.0973,0.0976,0.101,0.1009,0.1008,0.0861,0,0,0,0,0,0,0.0845,0.0844,0.0816,0.0856,0.0859,0.0837,0.0868,0.0872,0.0845,0.0844,0.0879,0.0886,0.0936,0.0943,0.0952,0.0911,0.0978,0.1012,0.101,0.1008,0.0867,0.0855,0.0844,0,0,0,0,0,0.0845,0.0802,0.0814,0.0812,0.0826,0.0835,0.0838,0.0849,0.0843,0.0822,0.0852,0.0883,0.0938,0.0945,0.0955,0.0914,0.1012,0.101,0.1008,0.0872,0.0857,0.0845,0,0,0,0,0,0,0.0781,0.08,0.0814,0.0776,0.0791,0.0834,0.0804,0.0818,0.0826,0.0809,0.0873,0.0883,0.0873,0.0917,0.0923,0.0923,0.0979,0.0979,0.0873,0.0859,0.0848,0.0842,0.0981,0,0,0,0,0,0.0758,0.0731,0.0767,0.0731,0.0731,0.0761,0.0756,0.0765,0.0786,0.0785,0.0812,0.0845,0.0881,0.0885,0.0924,0.0919,0.0982,0.0901,0.0889,0.0879,0.0883,0.0946,0.094,0.1,0.1,0.1,0,0,0.0721,0.0727,0.0709,0.0715,0.0724,0.0714,0.0755,0.0726,0.0716,0.0792,0.0764,0.0803,0.0873,0.0872,0.087,0.0895,0.0892,0.0877,0.0867,0.0877,0.0943,0.0937,0.0932,0.0999,0.0999,0.0999,0,0,0.0641,0.0639,0.0596,0.0605,0.0604,0.0636,0.0615,0.0635,0.0635,0.0629,0.0683,0.0696,0.0734,0.0781,0.0813,0.0764,0.0833,0.0761,0.0691,0.075,0.0746,0.0743,0.0797,0.08,0.075,0.075,0.075,0,0.0593,0.0557,0.0583,0.0554,0.0546,0.0591,0.0554,0.0573,0.0589,0.0592,0.0595,0.0658,0.0699,0.0731,0.0709,0.0736,0.078,0.0731,0.0734,0.0733,0.0732,0.0789,0.0794,0.0743,0.0744,0.0744,0.0745,0,0.0501,0.0469,0.0439,0.0429,0.0426,0.0395,0.0435,0.0424,0.0429,0.0461,0.0468,0.0532,0.0569,0.058,0.0627,0.0637,0.0673,0.0713,0.0763,0.0717,0.078,0.0788,0.0732,0.0735,0.0737,0.0739,0,0,0.0409,0.0381,0.0368,0.0348,0.0355,0.0345,0.033,0.0345,0.0336,0.0353,0.0353,0.0399,0.0424,0.0464,0.0518,0.0567,0.0586,0.0618,0.0625,0.0662,0.0709,0.069,0.0699,0.0619,0.062,0.0621,0.0748,0,0.033,0.0254,0.0264,0.0198,0.017,0.0209,0.0199,0.0216,0.0247,0.0263,0.033,0.0349,0.0385,0.0389,0.0437,0.0571,0.0604,0.0548,0.0759,0.0765,0.0746,0.0706,0.0664,0.0769,0.0756,0.0758,0.0759,0,0.0241,0.0208,0.0124,0.0099,0.0087,0.0054,0.0054,0.005,0.0108,0.0127,0.0161,0.0231,0.0298,0.0333,0.0503,0.0463,0.0555,0.0656,0.0664,0.0708,0.0762,0.082,0.0786,0.0773,0.0772,0.0771,0.077,0,0.0174,0.0112,0.004,0.0028,0.0008,-0.0032,-0.0044,-0.0009,-0.0008,0.0038,0.0052,0.0149,0.0204,0.0331,0.05,0.0504,0.0704,0.0746,0.0816,0.0817,0.0856,0.0857,0.0844,0.0844,0.0844,0.0843,0.0843,0,0.0097,0.0043,-0.0007,-0.0047,-0.0121,-0.012,-0.0177,-0.0164,-0.0139,-0.0118,-0.0043,0.0021,0.0206,0.0344,0.0485,0.0665,0.0683,0.08,0.0844,0.0801,0.0796,0.0868,0.0869,0.0848,0.0847,0.0846,0.0845,0,0.0039,0.0004,-0.0072,-0.0134,-0.0159,-0.022,-0.0267,-0.0282,-0.0268,-0.0232,-0.0225,-0.0063,0.0108,0.0281,0.0531,0.0649,0.0826,0.0875,0.0801,0.0832,0.0909,0.0901,0.0989,0.0989,0.0989,0.099,0.099,0,0.0005,-0.0048,-0.0142,-0.0187,-0.0229,-0.0307,-0.0341,-0.0352,-0.0346,-0.0256,-0.0223,-0.0075,0.0084,0.04,0.0627,0.0847,0.082,0.0902,0.0899,0.0887,0.0922,0.0914,0.0906,0.09,0.09,0.0899,0.0899,0,-0.0042,-0.009,-0.0148,-0.0249,-0.0317,-0.0368,-0.0418,-0.0423,-0.0394,-0.0331,-0.0185,-0.0054,0.0223,0.0486,0.0709,0.0825,0.0862,0.0899,0.0929,0.0849,0.0808,0.0841,0.0835,0.0895,0.0895,0.0895,0.0896,0.0896,-0.0067,-0.012,-0.0207,-0.0298,-0.0368,-0.041,-0.0432,-0.042,-0.0377,-0.0257,-0.0134,0.0124,0.0305,0.0707,0.0768,0.0839,0.0915,0.0925,0.0925,0.0926,0.0872,0.0832,0.0914,0.0914,0.0914,0.0915,0.0915,0,-0.0069,-0.0146,-0.0239,-0.0335,-0.0397,-0.044,-0.0457,-0.0421,-0.0328,-0.0193,-0.0042,0.0275,0.0516,0.0656,0.082,0.0898,0.0874,0.0813,0.0779,0.0786,0.0791,0.0727,0.0732,0.0731,0.073,0.0729,0,0,-0.0072,-0.0156,-0.0215,-0.0328,-0.04,-0.0448,-0.0446,-0.0357,-0.0254,-0.007,0.0148,0.039,0.0625,0.0679,0.0693,0.0708,0.0692,0.0664,0.0815,0.0771,0.0773,0.0875,0.0787,0,0,0,0,0]}],[{"header":{"parameterUnit":"m.s-1","parameterCategory":2,"la1":30.2991,"la2":30.254,"lo1":-89.0895,"lo2":-89.0444,"dy":0.0017,"dx":0.0017,"nx":28,"ny":28,"refTime":"2023-07-26T03:00:00:Z","depth":"4","parameterNumber":2,"parameterNumberName":"U-component_of_CURRENTS"},"data":[0,0,0,0,0,0,0,0,0,0,0,0,0,0,0,0,0,0,0,0,0,0,0,0,0,0,0,0,0,0,0,0,0,0,0,0,0,0,0,0,0,0,0,0,0,0,0,0,0,0,0,0,0,0,0,0,0,0,-0.0869,-0.087,0,-0.092,-0.0921,-0.0921,-0.0968,-0.0968,-0.0969,-0.097,-0.1092,-0.1095,-0.1098,0,0,0,0,0,0,0,0,0,0,0,0,0,-0.0759,-0.0761,-0.0869,-0.087,-0.0871,-0.092,-0.0921,-0.0921,-0.0968,-0.0968,-0.0969,-0.097,-0.1091,-0.1095,-0.1098,0,0,0,0,0,0,0,0,0,0,0,0,0,-0.0808,-0.0762,-0.0869,-0.09,-0.0904,-0.092,-0.0921,-0.0922,-0.0968,-0.0968,-0.0969,-0.097,-0.109,-0.1094,-0.1098,-0.1104,0,0,-0.111,-0.1112,0,0,0,0,0,0,0,0,-0.0805,-0.0812,-0.0895,-0.0898,-0.0902,-0.0939,-0.0927,-0.0986,-0.0967,-0.0942,-0.097,-0.0971,-0.1048,-0.1055,-0.106,-0.111,-0.1115,-0.1111,-0.1113,-0.1115,-0.1116,0,0,0,0,0,0,0,-0.0802,-0.0809,-0.0889,-0.0896,-0.09,-0.0894,-0.0902,-0.0938,-0.099,-0.0945,-0.0948,-0.0955,-0.105,-0.1056,-0.1064,-0.1117,-0.1111,-0.1114,-0.1117,-0.1118,-0.1306,-0.1308,0,0,0,0,0,0,-0.0799,-0.0807,-0.0887,-0.089,-0.0856,-0.0895,-0.0904,-0.0926,-0.0988,-0.0998,-0.0954,-0.0957,-0.1049,-0.1059,-0.1069,-0.1213,-0.1115,-0.1119,-0.1121,-0.1303,-0.1306,-0.1309,0,0,0,0,0,0,-0.0797,-0.0806,-0.0885,-0.0849,-0.0859,-0.0897,-0.092,-0.0926,-0.0924,-0.0994,-0.1006,-0.0944,-0.105,-0.1063,-0.1113,-0.1213,-0.112,-0.1124,-0.13,-0.1304,-0.1308,-0.1416,0,0,0,0,0,0,-0.0794,-0.0805,-0.0819,-0.085,-0.0861,-0.0879,-0.0919,-0.0927,-0.0927,-0.0931,-0.099,-0.1003,-0.1052,-0.1107,-0.1117,-0.1217,-0.1127,-0.1297,-0.1302,-0.1306,-0.141,-0.1424,-0.1435,0,0,0,0,0,-0.079,-0.0802,-0.082,-0.083,-0.088,-0.0878,-0.0882,-0.0911,-0.0926,-0.0914,-0.0976,-0.1,-0.1147,-0.111,-0.1122,-0.1226,-0.1294,-0.13,-0.1306,-0.1404,-0.1421,-0.1435,0,0,0,0,0,0,-0.0766,-0.0809,-0.0829,-0.0857,-0.086,-0.0886,-0.0909,-0.0896,-0.093,-0.0974,-0.1006,-0.1024,-0.1115,-0.1132,-0.1091,-0.1293,-0.1235,-0.1243,-0.1306,-0.1322,-0.1335,-0.1326,-0.1131,0,0,0,0,0,-0.0766,-0.0786,-0.0813,-0.0831,-0.0856,-0.0874,-0.0879,-0.09,-0.0934,-0.0949,-0.1011,-0.1087,-0.1148,-0.1197,-0.1255,-0.1341,-0.1281,-0.1422,-0.1435,-0.1446,-0.1447,-0.1467,-0.1482,-0.1328,-0.1328,-0.1328,0,0,-0.0764,-0.0788,-0.0802,-0.0826,-0.0863,-0.0892,-0.0881,-0.0916,-0.0917,-0.0962,-0.1038,-0.1121,-0.1171,-0.1293,-0.1339,-0.1324,-0.1439,-0.1454,-0.1463,-0.1457,-0.1475,-0.1489,-0.1502,-0.1332,-0.1331,-0.1331,0,0,-0.0749,-0.0804,-0.0812,-0.0825,-0.0871,-0.091,-0.0907,-0.0965,-0.0973,-0.1037,-0.1094,-0.1222,-0.1309,-0.14,-0.1437,-0.1541,-0.1491,-0.1581,-0.1667,-0.1688,-0.17,-0.171,-0.156,-0.1556,-0.1609,-0.161,-0.161,0,-0.0741,-0.0772,-0.0806,-0.0818,-0.0854,-0.0913,-0.0938,-0.0947,-0.1007,-0.1038,-0.1081,-0.1286,-0.1365,-0.1477,-0.1569,-0.1577,-0.1515,-0.1606,-0.1703,-0.1713,-0.1722,-0.1566,-0.1561,-0.1615,-0.1615,-0.1614,-0.1614,0,-0.0732,-0.0763,-0.0785,-0.0844,-0.087,-0.0919,-0.0957,-0.1001,-0.1074,-0.1118,-0.1248,-0.1377,-0.151,-0.1583,-0.1629,-0.176,-0.1661,-0.1698,-0.166,-0.1744,-0.1573,-0.1565,-0.1624,-0.1622,-0.162,-0.1619,0,0,-0.0707,-0.0767,-0.0776,-0.0803,-0.0905,-0.0924,-0.0971,-0.1032,-0.1071,-0.1201,-0.1262,-0.1477,-0.1599,-0.165,-0.1744,-0.1817,-0.1848,-0.1822,-0.1821,-0.166,-0.1765,-0.1662,-0.1641,-0.1916,-0.1918,-0.1919,-0.1584,0,-0.0702,-0.0723,-0.0766,-0.0823,-0.0865,-0.0944,-0.0969,-0.1032,-0.1129,-0.1216,-0.1351,-0.1485,-0.159,-0.172,-0.1808,-0.1861,-0.1849,-0.1926,-0.1718,-0.1707,-0.1602,-0.1641,-0.1925,-0.1578,-0.1576,-0.1575,-0.1574,0,-0.0683,-0.0709,-0.075,-0.082,-0.0851,-0.0903,-0.1018,-0.1034,-0.1147,-0.1238,-0.141,-0.1508,-0.1673,-0.1747,-0.1806,-0.1853,-0.1818,-0.1817,-0.1805,-0.1675,-0.1598,-0.1501,-0.1559,-0.156,-0.1561,-0.1562,-0.1563,0,-0.0635,-0.07,-0.074,-0.0767,-0.0858,-0.0898,-0.0965,-0.1073,-0.1114,-0.1274,-0.1395,-0.1529,-0.163,-0.1668,-0.1711,-0.1776,-0.1676,-0.1742,-0.1544,-0.1526,-0.1665,-0.1658,-0.1706,-0.1707,-0.1707,-0.1708,-0.1709,0,-0.0611,-0.0641,-0.0729,-0.0744,-0.0798,-0.0878,-0.0954,-0.1032,-0.1178,-0.1205,-0.1431,-0.146,-0.1642,-0.1617,-0.1636,-0.1538,-0.1592,-0.1531,-0.1473,-0.1701,-0.1704,-0.165,-0.1648,-0.1696,-0.1698,-0.1701,-0.1703,0,-0.0549,-0.0598,-0.0632,-0.0732,-0.0766,-0.0803,-0.094,-0.0995,-0.1165,-0.1209,-0.1276,-0.1419,-0.1385,-0.1444,-0.1418,-0.1415,-0.1348,-0.1262,-0.1359,-0.1312,-0.1171,-0.1178,-0.1024,-0.1019,-0.1014,-0.101,-0.1007,0,-0.0522,-0.0536,-0.0603,-0.0612,-0.0669,-0.0744,-0.079,-0.0965,-0.0987,-0.1098,-0.1071,-0.113,-0.1174,-0.1032,-0.1114,-0.105,-0.1076,-0.099,-0.1253,-0.1161,-0.1119,-0.1134,-0.1148,-0.0999,-0.0998,-0.0997,-0.0996,0,-0.0475,-0.0497,-0.0516,-0.0534,-0.0583,-0.0611,-0.0663,-0.0707,-0.0806,-0.0962,-0.0891,-0.0932,-0.0847,-0.0871,-0.0835,-0.0801,-0.1074,-0.0943,-0.0956,-0.1202,-0.1129,-0.1095,-0.1114,-0.0979,-0.0982,-0.0983,-0.0984,0,-0.0439,-0.0427,-0.0437,-0.0459,-0.0471,-0.0458,-0.0525,-0.0529,-0.0596,-0.0723,-0.0595,-0.0679,-0.0701,-0.0716,-0.0647,-0.0672,-0.0727,-0.0774,-0.0797,-0.0816,-0.0939,-0.0828,-0.0516,0,0,0,0,0,-0.0404,-0.0375,-0.0368,-0.0341,-0.0343,-0.0359,-0.0407,-0.0473,-0.0538,-0.0462,-0.0564,-0.0473,-0.0505,-0.0523,-0.0522,-0.0583,-0.0735,-0.0581,-0.0801,-0.0889,-0.0908,-0.1093,0,0,0,0,0,0,-0.0368,-0.0345,-0.0335,-0.0239,-0.0209,-0.0202,-0.0249,-0.0312,-0.0265,-0.0341,-0.0351,-0.0419,-0.0446,-0.0473,-0.0491,-0.0505,-0.0636,-0.0618,-0.0617,-0.0879,-0.0896,-0.0911,-0.1107,0,0,0,0,0]},{"header":{"parameterUnit":"m.s-1","parameterCategory":2,"la1":30.2991,"la2":30.254,"lo1":-89.0895,"lo2":-89.0444,"dy":0.0017,"dx":0.0017,"nx":28,"ny":28,"refTime":"2023-07-26T03:00:00:Z","depth":"4","parameterNumber":3,"parameterNumberName":"V-component_of_CURRENTS"},"data":[0,0,0,0,0,0,0,0,0,0,0,0,0,0,0,0,0,0,0,0,0,0,0,0,0,0,0,0,0,0,0,0,0,0,0,0,0,0,0,0,0,0,0,0,0,0,0,0,0,0,0,0,0,0,0,0,0,0,-0.0194,-0.0194,0,-0.0259,-0.026,-0.026,-0.0274,-0.0273,-0.0273,-0.0272,-0.0259,-0.0259,-0.0259,0,0,0,0,0,0,0,0,0,0,0,0,0,-0.0166,-0.0166,-0.0193,-0.0194,-0.0195,-0.0259,-0.026,-0.0261,-0.0274,-0.0273,-0.0272,-0.0272,-0.0259,-0.0259,-0.0259,0,0,0,0,0,0,0,0,0,0,0,0,0,-0.0199,-0.0166,-0.0193,-0.0209,-0.0211,-0.0259,-0.026,-0.0261,-0.0274,-0.0273,-0.0272,-0.0272,-0.0259,-0.0259,-0.0259,-0.0275,0,0,-0.026,-0.026,0,0,0,0,0,0,0,0,-0.0197,-0.02,-0.0206,-0.0208,-0.0211,-0.0257,-0.0245,-0.0262,-0.0274,-0.025,-0.0272,-0.0271,-0.0252,-0.0252,-0.0267,-0.0274,-0.0274,-0.026,-0.026,-0.026,-0.026,0,0,0,0,0,0,0,-0.0195,-0.0198,-0.0219,-0.0207,-0.021,-0.0243,-0.0246,-0.0249,-0.0253,-0.0252,-0.0253,-0.0261,-0.0252,-0.0267,-0.0267,-0.0274,-0.026,-0.026,-0.026,-0.026,-0.03,-0.03,0,0,0,0,0,0,-0.0183,-0.0195,-0.0217,-0.0221,-0.0202,-0.0244,-0.0247,-0.0243,-0.0254,-0.0256,-0.0261,-0.0261,-0.0267,-0.0267,-0.0266,-0.0299,-0.026,-0.026,-0.026,-0.0299,-0.03,-0.0301,0,0,0,0,0,0,-0.0182,-0.0184,-0.0215,-0.0211,-0.0217,-0.0244,-0.024,-0.0245,-0.0273,-0.0262,-0.0262,-0.0286,-0.0267,-0.0266,-0.0279,-0.0298,-0.026,-0.026,-0.0297,-0.0299,-0.03,-0.0355,0,0,0,0,0,0,-0.0181,-0.0183,-0.0193,-0.0209,-0.0216,-0.0258,-0.0241,-0.0247,-0.0278,-0.0279,-0.0283,-0.0281,-0.0266,-0.0279,-0.0279,-0.0297,-0.026,-0.0296,-0.0298,-0.03,-0.0352,-0.0358,-0.0364,0,0,0,0,0,-0.0179,-0.0195,-0.0193,-0.0197,-0.0224,-0.0259,-0.0267,-0.0284,-0.028,-0.0305,-0.0299,-0.0281,-0.029,-0.028,-0.028,-0.0299,-0.0295,-0.0298,-0.03,-0.035,-0.0357,-0.0363,0,0,0,0,0,0,-0.0187,-0.0198,-0.0196,-0.0213,-0.0241,-0.0262,-0.0281,-0.0297,-0.0316,-0.0302,-0.0297,-0.0295,-0.0317,-0.03,-0.029,-0.0315,-0.0289,-0.0291,-0.0327,-0.0334,-0.0339,-0.031,-0.026,0,0,0,0,0,-0.0192,-0.0206,-0.0223,-0.0239,-0.0244,-0.0266,-0.0287,-0.0294,-0.0306,-0.0315,-0.0326,-0.0321,-0.0327,-0.0323,-0.0329,-0.0341,-0.0298,-0.0352,-0.0358,-0.0362,-0.0339,-0.0279,-0.0276,-0.0308,-0.0308,-0.0308,0,0,-0.0201,-0.0208,-0.0218,-0.0243,-0.0252,-0.0279,-0.0276,-0.0298,-0.0326,-0.0307,-0.0348,-0.035,-0.0338,-0.0355,-0.0362,-0.0341,-0.0341,-0.0365,-0.0369,-0.0343,-0.0281,-0.0277,-0.0274,-0.0309,-0.0309,-0.0309,0,0,-0.0221,-0.0222,-0.0239,-0.0261,-0.0279,-0.0294,-0.0306,-0.0335,-0.0349,-0.0382,-0.0377,-0.039,-0.0404,-0.0402,-0.0398,-0.0438,-0.0382,-0.0441,-0.0435,-0.0379,-0.0375,-0.037,-0.0351,-0.0345,-0.0432,-0.0433,-0.0433,0,-0.0228,-0.0251,-0.0256,-0.0276,-0.0298,-0.0304,-0.0332,-0.0351,-0.039,-0.0403,-0.0395,-0.043,-0.0424,-0.0442,-0.0441,-0.0452,-0.0406,-0.0413,-0.0383,-0.0378,-0.0373,-0.0353,-0.0345,-0.0435,-0.0435,-0.0435,-0.0435,0,-0.0262,-0.0284,-0.0291,-0.0317,-0.0347,-0.0368,-0.0386,-0.0412,-0.0425,-0.0449,-0.048,-0.0477,-0.0483,-0.0498,-0.0469,-0.0447,-0.0427,-0.0407,-0.0361,-0.0372,-0.0353,-0.0343,-0.044,-0.0439,-0.0438,-0.0437,0,0,-0.0259,-0.0307,-0.031,-0.0331,-0.0367,-0.039,-0.0422,-0.0461,-0.0484,-0.0509,-0.0535,-0.0544,-0.053,-0.0522,-0.051,-0.0455,-0.0395,-0.0394,-0.039,-0.0367,-0.0273,-0.0208,-0.0191,-0.0347,-0.0345,-0.0344,-0.0289,0,-0.0281,-0.0329,-0.0355,-0.0408,-0.0428,-0.0446,-0.0489,-0.0519,-0.0537,-0.0564,-0.055,-0.057,-0.0544,-0.0535,-0.0478,-0.0404,-0.0364,-0.0412,-0.0271,-0.0268,-0.02,-0.0176,-0.0337,-0.0282,-0.0279,-0.0278,-0.0276,0,-0.0305,-0.0333,-0.0391,-0.0447,-0.0458,-0.0501,-0.0549,-0.0585,-0.0608,-0.0617,-0.0614,-0.0596,-0.0541,-0.0508,-0.0381,-0.0398,-0.0328,-0.028,-0.0276,-0.0175,-0.0182,-0.0258,-0.0259,-0.026,-0.0261,-0.0262,-0.0264,0,-0.0297,-0.0357,-0.0408,-0.0428,-0.0495,-0.0525,-0.0562,-0.0606,-0.0638,-0.0638,-0.0632,-0.0593,-0.0537,-0.0442,-0.0323,-0.0326,-0.0175,-0.0181,-0.0084,-0.0081,-0.0135,-0.0139,-0.0093,-0.0093,-0.0093,-0.0093,-0.0093,0,-0.031,-0.0345,-0.0411,-0.0435,-0.0502,-0.0537,-0.0602,-0.063,-0.0665,-0.0679,-0.0646,-0.0621,-0.0495,-0.0398,-0.0314,-0.0151,-0.0167,-0.0061,-0.0041,-0.0168,-0.0177,-0.013,-0.0135,-0.0091,-0.0092,-0.0092,-0.0093,0,-0.03,-0.0343,-0.0398,-0.0471,-0.0502,-0.0547,-0.0631,-0.0668,-0.0685,-0.0684,-0.067,-0.0604,-0.0451,-0.0359,-0.0198,-0.0119,-0.0006,0.0037,-0.0122,-0.0118,0.0037,0.0027,0.0165,0.0169,0.0171,0.0174,0.0176,0,-0.0309,-0.0334,-0.042,-0.0462,-0.0503,-0.0572,-0.0624,-0.068,-0.0687,-0.0667,-0.0638,-0.0521,-0.0449,-0.02,-0.0101,0.0049,0.0067,0.0116,0.0104,0.0069,0.0073,0.006,0.0047,0.018,0.0181,0.0182,0.0182,0,-0.0315,-0.0346,-0.0386,-0.0459,-0.0524,-0.0592,-0.0636,-0.0643,-0.066,-0.0676,-0.0574,-0.0467,-0.0298,-0.0148,-0.002,0.0074,0.009,0.0145,0.0139,0.0129,0.0088,0.0087,0.0071,0.0192,0.019,0.019,0.0189,0,-0.0317,-0.0345,-0.0391,-0.045,-0.0528,-0.057,-0.0607,-0.0588,-0.0604,-0.0555,-0.052,-0.0395,-0.0326,-0.0135,-0.0032,0.0095,0.0125,0.0159,0.0153,0.0143,0.013,0.0074,0.0215,0,0,0,0,0,-0.032,-0.0332,-0.0383,-0.0437,-0.0504,-0.0545,-0.0594,-0.0612,-0.0604,-0.0521,-0.0519,-0.0373,-0.0183,-0.0123,0.0023,0.0016,0.0139,0.0192,0.0172,0.0245,0.0234,0.023,0,0,0,0,0,0,-0.0323,-0.0353,-0.0364,-0.0401,-0.0433,-0.0502,-0.0534,-0.0539,-0.0474,-0.0458,-0.0361,-0.0321,-0.0146,-0.0257,0.0032,0.0065,0.0078,0.0268,0.0272,0.0251,0.0241,0.0232,0.0224,0,0,0,0,0]}]]